Papa, Hungary

2:54 AM CEST on May 23, 2017 (GMT +0200)
Papa

Weather History for LHPA - June, 2013

Change the Weather History Date:

Wednesday, June 5, 2013

  Actual Average Record
Temperature  
Mean Temperature 58 °F -  
Max Temperature 62 °F - - ()
Min Temperature 53 °F - - ()
Degree Days  
Heating Degree Days 8    
Growing Degree Days 8 (Base 50)    
Moisture  
Dew Point 54 °F    
Average Humidity 88    
Maximum Humidity 100    
Minimum Humidity 72    
Precipitation  
Precipitation 0.00 in - - ()
Sea Level Pressure  
Sea Level Pressure 30.02 in    
Wind  
Wind Speed 8 mph ()    
Max Wind Speed 16 mph    
Max Gust Speed -    
Visibility 5.4 miles    
Events Rain    
T = Trace of Precipitation, MM = Missing Value Source: Averaged Metar Reports

Daily Weather History Graph

Daily Weather History Graph

Search for Another Location

Airport or City:

Trip Planner

Search our weather history database for the weather conditions in past years. The results will help you decide how hot, cold, wet, or windy it might be!

Date:

Astronomy

Jun. 05, 2013 Rise Set
Actual Time 4:55 AM CEST 8:41 PM CEST
Civil Twilight 4:16 AM CEST 9:20 PM CEST
Nautical Twilight 3:23 AM CEST 10:14 PM CEST
Astronomical Twilight 2:07 AM CEST 11:30 PM CEST
Moon 3:00 AM CEST (6/5) 5:42 PM CEST (6/5)
Length of Visible Light 17h 04m
Length of Day
15h 45m
Waning Crescent, 9% of the Moon is Illuminated
Jun 5
Waning Crescent
Jun 8
New
Jun 16
First Quarter
Jun 23
Full
Jun 30
Last Quarter

Hourly Weather History & Observations

Time (CEST) Temp. Dew Point Humidity Pressure Visibility Wind Dir Wind Speed Gust Speed Precip Events Conditions
12:15 AM 55.4 °F 51.8 °F 88% 29.98 in 6.2 mi North 6.7 mph - N/A   Mostly Cloudy
12:45 AM 55.4 °F 51.8 °F 88% 29.98 in 6.2 mi NNW 6.7 mph - N/A   Mostly Cloudy
1:15 AM 55.4 °F 51.8 °F 88% 29.98 in 6.2 mi NNW 6.7 mph - N/A   Mostly Cloudy
1:45 AM 55.4 °F 51.8 °F 88% 29.98 in 6.2 mi NNW 11.2 mph - N/A   Mostly Cloudy
2:15 AM 55.4 °F 51.8 °F 88% 29.98 in 6.2 mi NNW 13.4 mph - N/A   Mostly Cloudy
2:45 AM 55.4 °F 51.8 °F 88% 29.98 in 6.2 mi NNW 11.2 mph - N/A   Mostly Cloudy
3:15 AM 55.4 °F 53.6 °F 94% 29.98 in 6.2 mi NNW 11.2 mph - N/A   Mostly Cloudy
3:45 AM - - N/A% - 6.2 mi NNW 8.9 mph - N/A   Mostly Cloudy
4:12 AM 55.4 °F 53.6 °F 94% 29.98 in 6.2 mi NNW 6.7 mph - N/A Rain Light Rain
4:15 AM 55.4 °F 53.6 °F 94% 29.98 in 6.2 mi NNW 6.7 mph - N/A Rain Light Rain
4:45 AM 55.4 °F 53.6 °F 94% 29.98 in 6.2 mi NNW 6.7 mph - N/A Rain Light Rain
5:05 AM 55.4 °F 53.6 °F 94% 29.98 in 5.0 mi NNW 6.7 mph - N/A   Mostly Cloudy
5:15 AM 55.4 °F 53.6 °F 94% 29.98 in 5.0 mi NNW 6.7 mph - N/A   Mostly Cloudy
5:45 AM 55.4 °F 53.6 °F 94% 29.98 in 5.0 mi NNW 6.7 mph - N/A   Mostly Cloudy
6:15 AM 55.4 °F 53.6 °F 94% 29.98 in 5.0 mi NNW 6.7 mph - N/A   Mostly Cloudy
6:42 AM 55.4 °F 53.6 °F 94% 29.98 in 5.0 mi NNW 6.7 mph - N/A Rain Light Rain
6:45 AM - - N/A% - 6.2 mi NNW 8.9 mph - N/A   Mostly Cloudy
7:15 AM 55.4 °F 53.6 °F 94% 29.98 in 3.7 mi NNW 6.7 mph - N/A Rain Light Rain
7:45 AM 57.2 °F 55.4 °F 94% 30.01 in 3.7 mi NNW 8.9 mph - N/A Rain Light Rain
8:15 AM 57.2 °F 55.4 °F 94% 30.01 in 3.7 mi NNW 11.2 mph - N/A Rain Light Rain
8:30 AM 57.2 °F 55.4 °F 94% 30.01 in 3.7 mi NNW 11.2 mph - N/A   Mostly Cloudy
8:45 AM 57.2 °F 55.4 °F 94% 30.01 in 3.7 mi NNW 11.2 mph - N/A   Mostly Cloudy
9:15 AM 57.2 °F 55.4 °F 94% 30.01 in 3.7 mi NNW 8.9 mph - N/A   Mostly Cloudy
9:19 AM 57.2 °F 55.4 °F 94% 30.01 in 3.7 mi NNW 8.9 mph - N/A Rain Light Rain
9:45 AM - - N/A% - 6.2 mi NNW 8.9 mph - N/A   Mostly Cloudy
10:15 AM 57.2 °F 55.4 °F 94% 30.01 in 3.7 mi NNW 11.2 mph - N/A Rain Light Rain
10:45 AM 59.0 °F 55.4 °F 88% 30.01 in 3.7 mi NNW 8.9 mph - N/A Rain Light Rain
11:15 AM 59.0 °F 55.4 °F 88% 30.04 in 3.7 mi NW 13.4 mph - N/A Rain Light Rain
11:45 AM 59.0 °F 55.4 °F 88% 30.04 in 3.7 mi NNW 11.2 mph - N/A Rain Light Rain
12:15 PM 60.8 °F 55.4 °F 82% 30.04 in 3.7 mi NNW 8.9 mph - N/A Rain Light Rain
12:32 PM 60.8 °F 55.4 °F 82% 30.04 in 5.0 mi NW 8.9 mph - N/A   Overcast
12:45 PM - - N/A% - 6.2 mi NNW 11.2 mph - N/A   Mostly Cloudy
1:15 PM 62.6 °F 55.4 °F 77% 30.04 in 6.2 mi NNW 11.2 mph - N/A   Overcast
1:45 PM 60.8 °F 55.4 °F 82% 30.04 in 6.2 mi NW 11.2 mph - N/A   Mostly Cloudy
2:15 PM 62.6 °F 55.4 °F 77% 30.04 in 6.2 mi NW 11.2 mph - N/A   Mostly Cloudy
2:45 PM 62.6 °F 55.4 °F 77% 30.04 in 6.2 mi NNW 13.4 mph - N/A   Mostly Cloudy
3:15 PM 62.6 °F 55.4 °F 77% 30.04 in 6.2 mi NNW 15.7 mph - N/A   Mostly Cloudy
3:45 PM - - N/A% - 6.2 mi NNW 11.2 mph - N/A   Mostly Cloudy
4:15 PM 62.6 °F 55.4 °F 77% 30.01 in 6.2 mi NNW 11.2 mph - N/A   Mostly Cloudy
4:45 PM 62.6 °F 53.6 °F 72% 30.04 in 6.2 mi NNW 11.2 mph - N/A   Mostly Cloudy
5:15 PM 60.8 °F 55.4 °F 82% 30.01 in 6.2 mi NNW 8.9 mph - N/A   Mostly Cloudy
5:45 PM 60.8 °F 55.4 °F 82% 30.04 in 6.2 mi NNE 6.7 mph - N/A   Mostly Cloudy
6:15 PM 60.8 °F 55.4 °F 82% 30.04 in 6.2 mi North 4.5 mph - N/A   Mostly Cloudy
6:45 PM - - N/A% - 6.2 mi WNW 6.7 mph - N/A   Mostly Cloudy
7:15 PM 62.6 °F 55.4 °F 77% 30.04 in 6.2 mi Calm Calm - N/A   Mostly Cloudy
7:45 PM 60.8 °F 55.4 °F 82% 30.04 in 6.2 mi North 4.5 mph - N/A   Mostly Cloudy
8:15 PM 60.8 °F 55.4 °F 82% 30.04 in 6.2 mi NNW 4.5 mph - N/A   Mostly Cloudy
8:45 PM 60.8 °F 55.4 °F 82% 30.04 in 6.2 mi NNW 6.7 mph - N/A   Mostly Cloudy
9:15 PM 59.0 °F 55.4 °F 88% 30.06 in 6.2 mi NNW 4.5 mph - N/A   Scattered Clouds
9:45 PM - - N/A% - 5.0 mi NW 4.5 mph - N/A   Overcast
10:15 PM 55.4 °F 53.6 °F 94% 30.06 in 6.2 mi NNW 4.5 mph - N/A   Partly Cloudy
10:45 PM 55.4 °F 53.6 °F 94% 30.06 in 5.0 mi North 4.5 mph - N/A   Scattered Clouds
11:15 PM 53.6 °F 53.6 °F 100% 30.06 in 3.7 mi NNW 4.5 mph - N/A   Unknown
11:45 PM 53.6 °F 53.6 °F 100% 30.06 in 5.0 mi North 4.5 mph - N/A   Unknown